This demonstration page uses our WeatherBlox Daily Observations layout. Learn more.

Left ArrowRight Arrow

39.12711, -84.51439

Hourly Observations for June 14, 2017

Temp ( °F °C ) Dew Point ( °F °C ) Humidity (%) Winds ( mph kmh ) Pressure ( in mb ) Visibility ( mi km ) Precip ( " mm )
12:53 am 00:53 Clear 69 20.6 68 20 96 96 Calm 30.01 1016 10 16 0.00 0.00
1:53 am 01:53 Clear 68 20 68 20 100 100 ENE 3 6 30.00 1016 10 16 0.00 0.00
2:53 am 02:53 Partly Cloudy 68 20 68 20 100 100 SW 3 6 29.98 1015 10 16 0.00 0.00
3:02 am 03:02 Mostly Cloudy with Nearby Thunderstorms 68 20 68 20 100 100 Calm 29.97 1015 9 14 0.00 0.00
3:17 am 03:17 Mostly Cloudy 70 21.1 69 20.6 97 97 WNW 5 7 29.97 1015 10 16 0.00 0.00
3:46 am 03:46 Cloudy with Heavy Rain 72 22.2 70 21.1 94 94 Calm 30.00 1016 2 3 0.11 2.79
3:53 am 03:53 Cloudy with Nearby Thunderstorms 72 22.2 69 20.6 91 91 NNW 5 7 30.01 1016 3 5 0.14 3.56
4:53 am 04:53 Mostly Cloudy with Thunderstorms 70 21.1 70 21.1 100 100 SSW 8 13 30.00 1016 6 10 0.10 2.54
5:53 am 05:53 Mostly Cloudy with Nearby Thunderstorms 69 20.6 66 18.9 90 90 SW 8 13 30.00 1016 9 14 0.03 0.76
6:05 am 06:05 Mostly Cloudy with Thunderstorms 69 20.6 66 18.9 90 90 SE 9 15 29.97 1015 5 8 0.04 1.02
6:20 am 06:20 Cloudy with Nearby Thunderstorms 69 20.6 66 18.9 90 90 SW 5 7 29.97 1015 9 14 0.05 1.27
6:28 am 06:28 Mostly Cloudy with Light Rain 69 20.6 66 18.9 90 90 WSW 6 9 29.97 1015 10 16 0.05 1.27
6:42 am 06:42 Partly Cloudy with Nearby Thunderstorms 69 20.6 68 20 96 96 WSW 6 9 29.97 1015 10 16 0.05 1.27
6:53 am 06:53 Mostly Sunny 69 20.6 68 20 96 96 SW 6 9 29.99 1016 10 16 0.05 1.27
7:53 am 07:53 Cloudy with Thunderstorms 70 21.1 69 20.6 97 97 NE 12 19 30.04 1017 10 16 0.00 0.00
8:18 am 08:18 Cloudy 71 21.7 69 20.6 94 94 E 5 7 30.00 1016 10 16 0.00 0.00
8:53 am 08:53 Sunny 71 21.7 68 20 90 90 VRB 3 6 30.04 1017 10 16 0.00 0.00
9:53 am 09:53 Mostly Cloudy 74 23.3 70 21.1 88 88 S 5 7 30.05 1018 10 16 0.00 0.00
10:17 am 10:17 Mostly Cloudy with Rain 72 22.2 69 20.6 91 91 Calm 30.03 1017 4 6 0.03 0.76
10:25 am 10:25 Cloudy with Nearby Thunderstorms 72 22.2 69 20.6 91 91 NE 3 6 30.03 1017 4 6 0.04 1.02
10:53 am 10:53 Cloudy with Nearby Thunderstorms 72 22.2 69 20.6 91 91 E 6 9 30.06 1018 10 16 0.04 1.02
11:08 am 11:08 Cloudy 72 22.2 69 20.6 91 91 ESE 5 7 30.03 1017 10 16 0.00 0.00
11:53 am 11:53 Cloudy 72 22.2 70 21.1 94 94 VRB 3 6 30.06 1018 10 16 0.00 0.00
12:53 pm 12:53 Cloudy 73 22.8 70 21.1 90 90 ESE 6 9 30.05 1018 10 16 0.00 0.03
1:53 pm 13:53 Mostly Cloudy 76 24.4 71 21.7 85 85 SSE 14 22 30.03 1017 10 16 0.00 0.00
2:53 pm 14:53 Cloudy with Light Rain 75 23.9 69 20.6 82 82 NE 9 15 30.04 1017 10 16 0.00 0.03
3:51 pm 15:51 Mostly Cloudy with Nearby Thunderstorms 73 23 70 21 89 89 SSW 8 13 30.00 1016 10 16 0.01 0.25
3:53 pm 15:53 Mostly Cloudy with Nearby Thunderstorms 74 23.3 70 21.1 88 88 S 7 11 30.03 1017 10 16 0.01 0.25
4:21 pm 16:21 Mostly Cloudy 73 22.8 69 20.6 87 87 SE 3 6 30.00 1016 10 16 0.00 0.00
4:53 pm 16:53 Partly Cloudy 73 22.8 70 21.1 90 90 SSE 7 11 29.99 1016 10 16 0.00 0.03
5:53 pm 17:53 Partly Cloudy 76 24.4 71 21.7 85 85 VRB 3 6 29.97 1015 10 16 0.00 0.03
6:53 pm 18:53 Sunny 77 25 69 20.6 77 77 SSW 7 11 29.93 1014 10 16 0.00 0.00
7:53 pm 19:53 Sunny 76 24.4 71 21.7 85 85 S 6 9 29.92 1013 10 16 0.00 0.00
8:53 pm 20:53 Sunny 75 23.9 71 21.7 88 88 Calm 29.95 1014 10 16 0.00 0.00
9:53 pm 21:53 Clear 72 22.2 71 21.7 97 97 Calm 29.96 1015 10 16 0.00 0.00
10:53 pm 22:53 Mostly Cloudy 72 22.2 71 21.7 97 97 Calm 29.98 1015 10 16 0.00 0.00
11:53 pm 23:53 Mostly Cloudy 70 21.1 70 21.1 100 100 Calm 29.97 1015 10 16 0.00 0.00

Powered by AerisWeather